Temp
-7 -7 -7 -6 -6 -6 -6 -6 -5 -5 -5 -5 -5 -5 -5 -5 -5 -5 -5 -5 -5 -5 -5 -5 -5 -5 -5 -5 -5 -5 -5 -6 -6 -6 -6 -6 -7 -7 -8 -8 -8 -8 -9
-8 -7 -7 -7 -6 -6 -6 -6 -6 -6 -6 -6 -6 -5 -5 -6 -6 -5 -5 -5 -5 -5 -5 -5 -5 -5 -5 -5 -5 -6 -6 -6 -6 -6 -6 -6 -7 -7 -7 -8 -8 -8 -9
-8 -8 -7 -7 -7 -7 -7 -6 -6 -6 -6 -6 -6 -6 -6 -6 -5 -5 -5 -5 -5 -5 -5 -5 -5 -5 -5 -5 -5 -5 -6 -6 -6 -6 -6 -6 -7 -7 -7 -7 -8 -8 -8
-8 -8 -7 -7 -7 -7 -7 -7 -7 -6 -6 -6 -6 -6 -6 -6 -6 -5 -5 -5 -5 -5 -5 -5 -5 -5 -5 -5 -6 -6 -5 -5 -5 -6 -6 -6 -6 -6 -7 -7 -8 -8 -8
-8 -8 -7 -7 -8 -7 -7 -7 -7 -7 -7 -6 -6 -6 -6 -6 -6 -6 -6 -6 -6 -6 -6 -6 -5 -5 -6 -5 -6 -6 -6 -6 -6 -6 -6 -6 -6 -7 -7 -7 -7 -8 -8
-9 -9 -8 -8 -8 -8 -7 -7 -7 -7 -7 -7 -6 -6 -6 -6 -6 -6 -6 -6 -6 -6 -6 -6 -6 -6 -6 -6 -6 -6 -6 -6 -6 -6 -6 -7 -7 -7 -7 -7 -8 -8 -8
-9 -9 -9 -8 -8 -8 -8 -8 -7 -7 -7 -7 -7 -7 -6 -6 -6 -6 -6 -6 -6 -6 -6 -6 -6 -6 -6 -6 -6 -6 -6 -6 -6 -7 -7 -7 -7 -7 -7 -8 -8 -8 -9
-9 -9 -9 -9 -8 -8 -8 -8 -8 -7 -7 -7 -7 -6 -6 -6 -6 -6 -6 -6 -6 -6 -6 -6 -6 -6 -6 -6 -6 -6 -6 -7 -7 -7 -7 -7 -7 -7 -8 -8 -8 -8 -9
-9 -9 -9 -9 -8 -8 -8 -8 -8 -7 -7 -7 -7 -7 -7 -6 -6 -6 -6 -6 -6 -6 -6 -6 -6 -6 -6 -6 -6 -7 -7 -7 -7 -7 -7 -8 -8 -8 -8 -8 -8 -9 -9
-9 -9 -9 -9 -9 -8 -8 -8 -8 -8 -7 -8 -8 -7 -7 -7 -7 -6 -6 -7 -7 -7 -7 -7 -7 -7 -7 -7 -7 -7 -7 -8 -8 -8 -8 -8 -8 -9 -9 -9 -9 -9 -9
-9 -9 -9 -9 -9 -9 -8 -8 -8 -8 -8 -8 -7 -7 -7 -7 -7 -7 -7 -7 -7 -7 -7 -7 -7 -7 -7 -7 -7 -7 -8 -8 -8 -8 -9 -9 -9 -9 -10 -10 -10 -10 -10
-10 -10 -9 -9 -9 -9 -9 -8 -8 -8 -8 -8 -8 -7 -7 -7 -7 -7 -7 -7 -7 -7 -7 -7 -7 -8 -8 -8 -8 -8 -9 -8 -9 -9 -9 -9 -9 -10 -10 -10 -10 -10 -11
-9 -10 -10 -9 -9 -9 -9 -9 -8 -8 -8 -8 -8 -8 -7 -7 -7 -7 -7 -7 -7 -7 -8 -8 -8 -8 -8 -9 -9 -9 -9 -9 -9 -9 -10 -10 -10 -10 -10 -10 -10 -11 -11
-11 -10 -10 -10 -10 -10 -9 -9 -9 -8 -8 -8 -8 -8 -8 -8 -8 -7 -7 -7 -7 -7 -8 -8 -8 -8 -8 -8 -9 -9 -9 -9 -9 -10 -10 -10 -10 -11 -11 -11 -11 -11 -11
-10 -10 -10 -10 -10 -10 -9 -9 -9 -9 -8 -8 -8 -8 -8 -8 -8 -8 -8 -7 -8 -8 -8 -8 -8 -8 -8 -9 -9 -9 -9 -10 -10 -10 -11 -11 -11 -11 -11 -11 -11 -12 -12
-11 -10 -10 -10 -10 -10 -10 -9 -9 -9 -9 -9 -8 -8 -8 -8 -8 -8 -8 -8 -8 -8 -8 -8 -8 -9 -9 -9 -9 -9 -9 -10 -10 -11 -11 -11 -11 -11 -11 -11 -12 -12 -12
-11 -10 -10 -10 -10 -10 -10 -9 -9 -9 -9 -9 -9 -8 -8 -8 -8 -8 -8 -8 -8 -8 -8 -9 -9 -9 -9 -9 -10 -10 -10 -10 -11 -11 -11 -11 -11 -11 -11 -12 -12 -12 -12
-11 -11 -10 -10 -10 -10 -10 -10 -10 -9 -9 -9 -9 -9 -8 -8 -8 -9 -9 -9 -8 -9 -9 -9 -9 -9 -9 -10 -10 -10 -10 -10 -10 -11 -11 -11 -11 -11 -12 -12 -12 -12 -13
-12 -11 -11 -11 -11 -10 -10 -10 -10 -9 -9 -9 -9 -9 -9 -9 -9 -9 -9 -9 -9 -9 -9 -9 -9 -9 -10 -10 -10 -11 -11 -11 -11 -11 -11 -11 -12 -12 -12 -12 -13 -13 -13
-12 -11 -11 -11 -10 -10 -10 -10 -10 -10 -10 -9 -9 -9 -9 -9 -9 -9 -9 -9 -9 -9 -9 -9 -9 -10 -10 -10 -10 -11 -11 -11 -11 -11 -11 -12 -12 -12 -13 -13 -13 -13 -13
-12 -12 -12 -11 -11 -11 -10 -10 -10 -10 -10 -10 -9 -9 -9 -9 -9 -9 -10 -10 -9 -9 -10 -10 -10 -10 -10 -10 -10 -11 -11 -11 -11 -11 -12 -12 -12 -13 -13 -13 -13 -13 -13
-12 -12 -12 -12 -11 -11 -11 -10 -10 -10 -10 -10 -10 -10 -10 -10 -10 -10 -10 -10 -10 -10 -10 -10 -10 -10 -10 -11 -10 -10 -10 -11 -12 -12 -12 -12 -13 -13 -13 -13 -13 -13 -14
-12 -12 -12 -12 -12 -11 -11 -11 -11 -11 -11 -11 -10 -10 -10 -10 -10 -10 -10 -10 -10 -10 -10 -10 -10 -10 -10 -11 -11 -11 -11 -11 -11 -12 -12 -13 -13 -13 -13 -13 -13 -14 -14
-13 -13 -12 -13 -12 -12 -11 -11 -11 -11 -11 -11 -11 -11 -11 -10 -10 -10 -10 -10 -10 -10 -10 -10 -10 -10 -11 -11 -11 -11 -11 -11 -11 -11 -12 -13 -13 -14 -14 -14 -14 -14 -14
-13 -13 -13 -13 -12 -12 -11 -11 -11 -11 -11 -11 -11 -11 -11 -11 -11 -11 -11 -11 -11 -11 -11 -11 -11 -11 -11 -11 -11 -11 -12 -12 -12 -12 -12 -13 -13 -13 -14 -13 -14 -14 -14
-14 -14 -13 -13 -13 -12 -12 -12 -11 -11 -11 -11 -11 -11 -11 -11 -11 -11 -11 -11 -11 -12 -12 -11 -11 -12 -11 -11 -11 -12 -12 -12 -12 -13 -13 -13 -13 -13 -14 -14 -14 -14 -15
Height
5903 5904 5906 5908 5909 5910 5911 5911 5912 5912 5913 5914 5914 5914 5914 5914 5914 5914 5913 5912 5912 5912 5911 5911 5910 5909 5909 5908 5907 5905 5904 5903 5901 5900 5899 5897 5896 5895 5893 5891 5890 5889 5888
5901 5903 5904 5906 5908 5909 5910 5910 5911 5912 5913 5913 5913 5913 5913 5913 5913 5912 5912 5911 5911 5912 5911 5910 5909 5908 5907 5907 5906 5904 5903 5901 5900 5899 5897 5896 5895 5893 5892 5890 5888 5887 5885
5899 5901 5903 5905 5906 5908 5909 5910 5910 5911 5912 5912 5913 5912 5913 5912 5912 5911 5911 5910 5911 5910 5909 5909 5908 5907 5906 5905 5904 5903 5901 5900 5899 5897 5896 5894 5893 5891 5890 5889 5887 5885 5883
5898 5899 5901 5903 5904 5906 5908 5909 5909 5910 5911 5911 5912 5912 5911 5911 5910 5910 5910 5910 5909 5909 5908 5907 5907 5906 5904 5903 5902 5901 5899 5898 5897 5896 5894 5893 5891 5890 5888 5886 5884 5882 5880
5896 5898 5899 5901 5902 5905 5906 5907 5908 5909 5910 5910 5911 5910 5910 5909 5909 5909 5909 5908 5908 5907 5907 5906 5905 5904 5902 5901 5900 5899 5898 5896 5895 5894 5892 5890 5889 5887 5886 5884 5882 5880 5877
5894 5896 5898 5899 5901 5903 5904 5906 5907 5908 5909 5909 5910 5909 5909 5908 5908 5908 5908 5907 5906 5906 5906 5905 5904 5903 5901 5900 5898 5898 5896 5894 5893 5891 5889 5888 5886 5884 5883 5881 5879 5878 5875
5892 5894 5896 5897 5899 5901 5903 5904 5905 5906 5907 5908 5908 5908 5907 5907 5906 5906 5906 5905 5905 5905 5904 5903 5902 5900 5899 5898 5896 5895 5894 5893 5891 5889 5887 5885 5883 5881 5880 5878 5877 5874 5872
5889 5891 5893 5895 5897 5899 5901 5902 5903 5904 5905 5905 5905 5905 5905 5905 5905 5905 5904 5904 5904 5903 5902 5902 5900 5898 5897 5895 5894 5893 5891 5890 5889 5887 5885 5883 5881 5878 5877 5875 5873 5870 5868
5886 5889 5890 5892 5895 5897 5899 5900 5902 5903 5903 5903 5902 5902 5903 5903 5903 5903 5902 5903 5902 5901 5901 5899 5898 5896 5895 5893 5892 5890 5889 5887 5886 5884 5882 5880 5878 5876 5873 5871 5869 5867 5865
5882 5886 5887 5888 5891 5894 5896 5898 5900 5900 5901 5901 5901 5901 5900 5900 5900 5900 5901 5900 5899 5898 5898 5897 5895 5894 5893 5891 5889 5888 5886 5885 5883 5881 5879 5877 5875 5872 5871 5868 5866 5864 5862
5879 5881 5883 5885 5888 5890 5893 5895 5897 5898 5899 5899 5899 5899 5899 5898 5898 5898 5898 5897 5896 5896 5895 5894 5893 5891 5890 5888 5886 5885 5883 5881 5879 5877 5875 5873 5871 5868 5867 5864 5862 5861 5859
5873 5876 5879 5882 5884 5887 5889 5892 5893 5895 5896 5896 5896 5896 5896 5896 5896 5896 5895 5894 5893 5893 5892 5891 5890 5889 5887 5885 5883 5881 5879 5877 5875 5873 5871 5869 5867 5864 5862 5860 5858 5856 5854
5868 5873 5875 5878 5881 5883 5885 5887 5889 5891 5892 5893 5893 5893 5893 5894 5894 5893 5892 5891 5890 5890 5889 5888 5887 5885 5884 5882 5880 5878 5876 5873 5871 5869 5867 5865 5862 5859 5857 5855 5853 5851 5848
5863 5869 5872 5874 5876 5878 5881 5883 5885 5886 5887 5888 5889 5889 5890 5890 5890 5890 5889 5888 5887 5886 5886 5884 5883 5881 5880 5878 5876 5874 5872 5869 5867 5864 5862 5860 5857 5853 5851 5849 5846 5844 5842
5859 5862 5866 5869 5871 5874 5876 5878 5880 5882 5883 5884 5885 5885 5886 5886 5886 5885 5885 5884 5883 5882 5882 5880 5879 5877 5875 5874 5872 5870 5867 5865 5862 5859 5857 5854 5850 5848 5845 5843 5840 5838 5836
5853 5856 5859 5863 5867 5869 5872 5874 5876 5877 5879 5880 5880 5881 5881 5881 5881 5881 5880 5880 5879 5878 5877 5875 5874 5872 5870 5869 5866 5864 5861 5859 5856 5853 5850 5846 5843 5841 5838 5836 5833 5831 5829
5846 5850 5853 5857 5860 5864 5867 5869 5871 5873 5874 5875 5876 5876 5876 5876 5877 5877 5876 5875 5874 5873 5872 5870 5869 5867 5865 5863 5860 5858 5855 5852 5849 5846 5843 5839 5836 5834 5831 5828 5826 5824 5821
5841 5845 5848 5851 5856 5859 5861 5863 5865 5867 5868 5869 5870 5871 5871 5872 5872 5872 5870 5869 5869 5867 5866 5865 5863 5861 5859 5856 5853 5851 5849 5845 5841 5838 5835 5831 5829 5826 5823 5820 5817 5815 5813
5834 5839 5842 5846 5849 5852 5855 5857 5859 5861 5862 5864 5865 5865 5865 5866 5866 5865 5865 5863 5862 5861 5860 5858 5856 5854 5852 5849 5847 5844 5841 5838 5834 5832 5828 5824 5821 5818 5815 5812 5809 5806 5804
5828 5831 5835 5839 5843 5845 5848 5851 5852 5854 5855 5856 5858 5859 5859 5859 5859 5859 5858 5857 5855 5854 5853 5851 5849 5847 5844 5842 5839 5837 5834 5830 5827 5823 5820 5817 5813 5810 5807 5803 5800 5797 5795
5822 5825 5828 5832 5836 5839 5841 5843 5845 5846 5848 5849 5850 5851 5852 5852 5852 5851 5851 5849 5848 5847 5845 5843 5841 5839 5837 5834 5832 5830 5827 5823 5820 5814 5812 5808 5805 5802 5798 5795 5791 5789 5786
5814 5818 5821 5825 5828 5831 5833 5835 5838 5839 5841 5842 5843 5843 5844 5844 5843 5843 5843 5842 5840 5839 5837 5835 5832 5830 5828 5826 5823 5821 5821 5818 5812 5807 5803 5799 5796 5793 5790 5786 5783 5780 5777
5804 5809 5813 5817 5820 5823 5825 5827 5829 5831 5833 5834 5834 5835 5835 5835 5835 5835 5834 5834 5832 5831 5829 5827 5824 5822 5820 5818 5814 5813 5810 5809 5804 5800 5795 5791 5788 5784 5781 5778 5774 5770 5767
5795 5799 5803 5808 5812 5815 5817 5820 5821 5823 5825 5826 5827 5827 5827 5827 5827 5827 5826 5825 5824 5823 5821 5819 5816 5814 5811 5809 5807 5802 5799 5796 5794 5793 5789 5785 5780 5776 5772 5768 5764 5760 5756
5784 5789 5792 5797 5801 5804 5807 5809 5811 5813 5815 5816 5817 5818 5819 5819 5818 5817 5817 5816 5815 5813 5812 5809 5807 5804 5802 5800 5797 5793 5789 5786 5784 5781 5779 5776 5772 5768 5763 5759 5755 5750 5745
5775 5780 5784 5787 5790 5793 5796 5799 5801 5802 5804 5805 5807 5807 5808 5808 5808 5807 5807 5806 5805 5803 5801 5799 5797 5795 5792 5790 5787 5783 5780 5777 5774 5771 5769 5766 5763 5760 5755 5748 5745 5739 5735
Wind_Speed
14 13 11 9 8 7 5 4 3 3 3 2 1 1 2 4 6 7 8 10 9 9 8 8 8 8 8 8 9 10 12 13 14 15 15 15 15 15 15 15 15 15 15
14 13 12 11 9 8 7 6 3 3 2 1 1 2 3 5 6 8 9 9 9 9 9 9 9 9 8 8 9 11 12 14 14 15 16 16 16 16 16 16 17 17 17
15 14 13 12 10 8 7 6 4 3 2 3 3 3 4 5 7 7 9 10 10 10 10 9 10 9 9 9 11 12 13 14 14 15 16 16 16 16 17 17 17 18 17
14 14 14 12 11 9 8 7 5 3 3 4 4 5 5 6 7 8 9 9 10 10 10 11 11 10 11 12 13 14 15 15 16 17 17 17 17 17 17 17 16 17 18
13 13 14 12 10 10 9 7 5 4 4 5 6 6 6 6 6 8 9 9 9 9 10 11 11 11 12 12 13 14 15 16 16 16 17 17 18 19 19 19 19 18 17
16 14 15 13 11 10 9 7 6 5 5 6 6 6 6 6 7 9 9 9 10 10 11 12 13 13 13 13 14 15 15 16 17 18 18 19 19 20 20 21 21 20 20
18 16 15 15 12 10 9 7 7 7 6 7 6 7 7 8 9 10 11 11 11 11 12 13 14 14 14 15 15 16 17 18 19 19 20 21 21 21 22 23 23 22 22
21 19 17 16 14 12 10 7 7 7 9 10 9 9 9 9 10 11 11 12 12 12 13 13 14 15 15 15 16 17 19 20 20 21 22 23 23 23 24 24 24 23 22
23 21 19 18 16 14 11 9 8 8 8 9 11 12 13 11 11 12 12 12 12 12 14 15 15 16 17 17 18 19 20 20 21 22 24 23 23 24 25 25 25 25 25
23 23 21 19 18 15 13 11 9 9 8 8 10 11 14 16 15 14 13 14 14 14 15 16 17 17 18 19 19 20 21 21 22 23 24 24 25 26 26 26 27 27 27
26 24 23 21 20 17 14 12 11 10 9 10 10 11 12 14 15 15 15 15 15 15 16 16 16 18 19 20 21 22 21 22 23 24 24 25 25 26 26 26 27 27 28
29 27 25 23 22 18 16 13 13 12 12 12 12 13 13 13 14 14 15 15 16 17 17 18 18 19 20 21 22 24 24 24 25 26 25 25 27 28 29 30 30 29 29
30 28 27 24 22 20 18 16 15 14 14 14 15 15 15 14 14 15 15 15 16 16 18 18 20 21 22 22 24 25 25 26 26 26 27 27 28 29 30 31 31 32 31
31 29 28 26 25 22 20 18 17 17 17 16 17 18 17 16 16 17 17 17 17 18 19 20 21 23 24 25 26 27 27 27 28 28 27 28 30 32 32 33 33 34 33
33 32 31 30 28 25 23 21 21 21 19 19 19 20 20 19 19 19 19 20 20 20 21 22 24 25 26 27 28 28 28 30 31 31 31 31 33 33 34 34 35 35 35
36 35 33 32 30 28 26 25 24 23 22 22 21 22 23 23 22 22 22 23 23 22 23 25 26 27 29 29 30 30 31 33 33 34 34 35 36 37 37 36 36 35 35
38 38 36 34 33 30 29 27 26 24 24 25 25 25 26 26 25 24 25 25 25 25 25 27 29 30 31 32 33 33 35 37 36 38 37 38 38 38 38 39 38 39 39
40 40 39 37 34 32 29 27 27 27 28 28 29 29 29 28 27 27 27 28 27 28 29 31 32 33 34 35 35 36 38 39 40 40 40 41 40 39 40 39 39 39 38
43 41 40 39 37 35 33 33 32 31 32 32 32 32 32 31 30 30 29 30 30 31 33 34 35 36 36 37 37 39 40 41 41 42 42 41 40 40 38 39 39 41 41
45 45 45 43 42 39 38 37 36 35 35 35 35 35 35 33 33 33 32 33 34 35 36 37 37 38 38 39 39 40 42 43 43 44 42 42 40 38 38 39 41 40 38
45 46 45 43 43 42 41 40 40 39 38 38 38 38 38 37 37 36 36 37 38 38 39 40 41 42 41 41 41 41 42 43 44 44 43 41 40 38 39 41 38 40 43
50 51 50 48 47 46 45 44 43 42 41 40 40 40 40 41 41 40 39 39 39 40 42 43 45 45 45 43 43 44 43 43 43 43 41 41 39 39 40 38 39 43 44
57 54 52 51 49 48 47 46 45 44 43 43 43 43 43 43 44 44 43 43 43 44 44 46 49 48 46 44 45 47 47 44 41 40 40 39 39 38 38 38 42 45 46
56 57 56 54 53 53 51 50 48 47 46 46 45 45 46 46 46 47 46 45 45 45 45 50 49 47 47 44 46 48 45 44 42 40 40 39 38 36 35 40 44 45 46
55 54 51 54 56 57 58 57 54 51 50 49 48 48 47 47 48 48 47 47 47 49 53 50 48 47 45 45 47 47 45 43 41 40 38 37 37 36 39 43 45 46 47
50 48 47 49 50 51 51 52 53 52 51 50 49 49 48 49 49 50 50 50 53 52 50 49 47 45 46 47 46 45 43 41 40 39 38 37 37 37 40 44 45 47 48
Wind_Direction
220 221 219 223 232 240 245 253 247 224 209 206 223 322 360 354 348 351 351 347 340 334 333 337 336 337 344 339 332 333 334 334 335 333 331 325 324 322 319 319 316 314 310
225 229 227 232 236 242 248 242 229 218 220 248 324 341 346 350 347 348 345 346 342 336 330 330 332 337 337 333 329 332 335 337 334 332 331 331 327 323 320 320 317 314 312
230 234 234 237 244 245 248 238 224 229 286 299 303 328 334 341 346 348 343 346 338 332 335 329 329 327 327 324 330 332 334 333 330 330 329 325 325 325 321 320 318 315 309
236 240 238 236 239 240 237 236 231 247 275 289 312 324 334 341 344 345 346 338 336 332 331 332 330 329 331 333 331 333 331 329 329 328 325 326 325 321 318 317 317 311 308
231 241 241 234 230 230 223 227 236 257 285 303 312 326 328 338 336 339 336 332 326 324 330 328 326 326 331 330 331 329 327 328 325 320 321 322 320 317 316 317 312 306 304
228 229 230 224 218 222 227 228 238 259 288 301 306 314 317 324 332 333 334 327 325 327 324 326 322 323 329 331 330 327 324 320 318 319 319 317 316 313 315 315 314 310 305
227 218 218 217 208 214 226 241 259 274 286 292 303 310 313 322 331 335 328 328 325 324 325 323 321 323 325 327 327 324 321 319 320 319 317 315 315 315 314 314 313 308 305
228 218 213 214 209 214 219 233 259 282 295 302 309 307 312 320 329 325 323 323 324 322 320 317 319 320 323 325 324 322 320 319 320 319 319 319 318 317 312 311 309 305 302
223 217 213 215 214 216 220 227 248 266 282 298 307 311 312 318 321 318 316 315 318 319 318 317 321 324 323 322 320 317 315 316 317 318 317 318 318 316 313 312 310 308 306
222 216 216 217 220 220 225 232 245 259 269 275 285 294 306 312 315 314 312 314 318 317 317 318 320 319 318 317 314 314 314 317 318 317 317 320 320 319 317 317 315 313 312
227 221 221 221 225 225 229 236 246 258 263 264 271 277 285 297 305 308 310 313 315 314 314 314 313 313 314 314 314 314 316 317 317 319 321 321 318 316 315 316 314 314 313
226 224 224 224 227 231 234 239 246 255 262 265 270 272 280 286 291 296 301 307 311 311 312 311 311 310 311 312 312 313 315 316 316 316 315 314 314 314 314 314 313 310 308
222 225 225 227 231 235 239 243 247 253 261 268 272 275 279 281 284 290 298 302 305 306 306 306 307 308 309 310 309 310 310 311 311 311 312 312 311 312 311 310 308 307 307
225 227 230 230 233 235 241 247 252 256 261 267 272 276 280 282 286 292 297 299 302 301 300 300 302 305 305 306 307 306 307 308 308 307 308 308 309 308 308 307 306 305 303
228 225 227 229 230 233 241 248 253 257 260 265 270 276 280 283 285 289 293 297 297 298 297 298 300 303 303 304 304 303 303 305 306 306 309 310 307 306 306 304 303 302 302
224 227 226 229 233 236 239 245 254 258 263 266 270 273 276 279 283 287 290 293 293 295 297 297 300 302 301 302 301 300 304 304 304 305 308 308 306 305 303 301 300 300 300
226 226 229 231 234 238 244 248 252 255 261 266 267 270 273 276 280 285 287 286 291 292 295 297 299 299 298 298 298 301 304 304 305 307 309 306 304 303 301 301 301 300 299
230 233 232 235 239 242 243 246 250 257 261 264 267 269 272 276 279 280 281 285 290 292 294 295 294 296 295 297 299 300 304 305 306 308 306 304 303 301 301 301 301 302 302
230 233 235 235 237 240 245 248 252 257 260 263 266 268 271 273 275 277 281 286 288 290 290 291 293 293 294 294 295 301 303 304 305 305 304 302 302 301 303 305 305 304 303
234 235 240 240 241 242 244 249 253 257 259 263 266 269 271 273 277 279 281 284 286 287 288 290 292 292 292 293 296 301 302 303 305 304 300 300 300 302 304 303 303 302 304
235 236 238 239 243 245 247 248 251 254 258 262 265 270 274 276 277 278 280 281 284 287 288 291 291 292 292 293 295 298 301 303 302 298 299 299 300 302 303 303 300 302 304
238 242 243 245 246 248 250 251 252 255 258 261 265 269 272 275 277 278 279 281 283 285 288 290 290 291 292 293 295 297 298 298 297 296 298 299 300 300 299 297 300 303 303
240 240 242 243 244 246 249 252 255 258 260 263 266 268 270 272 275 277 278 280 282 283 285 287 289 290 290 292 294 295 296 297 294 295 296 297 298 297 296 296 300 301 300
244 244 243 243 245 249 249 251 252 254 256 259 260 263 266 269 272 274 276 279 279 280 283 287 286 288 289 290 293 295 297 297 295 294 293 295 295 294 293 298 300 301 302
246 249 251 249 250 251 251 251 251 253 255 258 261 263 265 267 271 274 277 279 280 283 286 284 285 288 288 291 294 295 296 294 293 293 293 294 296 292 294 298 300 302 302
241 242 246 247 247 249 250 251 253 256 258 261 263 265 268 271 273 275 277 278 281 282 281 285 286 287 290 292 294 294 292 291 292 292 295 294 296 293 296 300 302 303 301